EHI
22 22 25 38 57 74 83 88 91 87 74 58 40 23 9 2 0 0 0 0 0 0 0 0 0 0 0 0 0 0 0 0 0 0 0 0 0 0 0 0 0 0 0
15 16 20 31 49 68 80 87 90 84 71 54 33 15 5 1 0 0 0 0 0 0 0 0 0 0 0 0 0 0 0 0 0 0 0 0 0 0 0 0 0 0 0
9 10 13 21 37 58 76 86 85 76 59 38 19 6 1 0 0 0 0 0 0 0 0 0 0 0 0 0 0 0 0 0 0 0 0 0 0 0 0 0 0 0 0
6 6 7 12 27 52 74 80 75 60 39 18 7 2 0 0 0 0 0 0 0 0 0 0 0 0 0 0 0 0 0 0 0 0 0 0 0 0 0 0 0 0 0
4 3 5 11 29 55 72 70 57 38 18 6 2 1 0 0 0 0 0 0 0 0 0 0 0 0 0 0 0 0 0 0 0 0 0 0 0 0 0 0 0 0 0
4 6 11 21 38 57 61 51 34 17 5 1 0 0 0 0 0 0 0 0 0 0 0 0 0 0 0 0 0 0 0 0 0 0 0 0 0 0 0 0 0 0 0
7 11 18 28 40 45 40 27 15 5 1 0 0 0 0 0 0 0 0 0 0 0 0 0 0 0 0 0 0 0 0 0 0 0 0 0 0 0 0 0 0 0 0
7 10 15 21 24 23 16 9 4 1 0 0 0 0 0 0 0 0 0 0 0 0 0 0 0 0 0 0 0 0 0 0 0 0 0 0 0 0 0 0 0 0 0
5 5 6 8 7 6 3 1 0 0 0 0 0 0 0 0 0 0 0 0 0 0 0 0 0 0 0 0 0 0 0 0 0 0 0 0 0 0 0 0 0 0 0
2 2 2 1 1 0 0 0 0 0 0 0 0 0 0 0 0 0 0 0 0 0 0 0 0 0 0 0 0 0 0 0 0 0 0 0 0 0 0 0 0 0 0
1 0 0 0 0 0 0 0 0 0 0 0 0 0 0 0 0 0 0 0 0 0 0 0 0 0 0 0 0 0 0 0 0 0 0 0 0 0 0 0 0 0 0
0 0 0 0 0 0 0 0 0 0 0 0 0 0 0 0 0 0 0 0 0 0 0 0 0 0 0 0 0 0 0 0 0 0 0 0 0 0 0 0 0 0 0
0 0 0 0 0 0 0 0 0 0 0 0 0 0 0 0 0 0 0 0 0 0 0 0 0 0 0 0 0 0 0 0 0 0 0 0 0 0 0 0 0 0 0
0 0 0 0 0 0 0 0 0 0 0 0 0 0 0 0 0 0 0 0 0 0 0 0 0 0 0 0 0 0 0 0 0 0 0 0 0 0 0 0 0 0 0
0 0 0 0 0 0 0 0 0 0 0 0 0 0 0 0 0 0 0 0 0 0 0 0 0 0 0 0 0 0 0 0 0 0 0 0 0 0 0 0 0 0 0
0 0 0 0 0 0 0 0 0 0 0 0 0 0 0 0 0 0 0 0 0 0 0 0 0 0 0 0 0 0 0 0 0 0 0 0 0 0 0 0 0 0 0
0 0 0 0 0 0 0 0 0 0 0 0 0 0 0 0 0 0 0 0 0 0 0 0 0 0 0 0 0 0 0 0 0 0 0 0 0 0 0 0 0 0 0
0 0 0 0 0 0 0 0 0 0 0 0 0 0 0 0 0 0 0 0 0 0 0 0 0 0 0 0 0 0 0 0 0 0 0 0 0 0 0 0 0 0 0
0 0 0 0 0 0 0 0 0 0 0 0 0 0 0 0 0 0 0 0 0 0 0 0 0 0 0 0 0 0 0 0 0 0 0 0 0 0 0 0 0 0 0
0 0 0 0 0 0 0 0 0 0 0 0 0 0 0 0 0 0 0 0 0 0 0 0 0 0 0 0 0 0 0 0 0 0 0 0 0 0 0 0 0 0 0
0 0 0 0 0 0 0 0 0 0 0 0 0 0 0 0 0 0 0 0 0 0 0 0 0 0 0 0 0 0 0 0 0 0 0 0 0 0 0 0 0 0 0
0 0 0 0 0 0 0 0 0 0 0 0 0 0 0 0 0 0 0 0 0 0 0 0 0 0 0 0 0 0 0 0 0 0 0 0 0 0 0 0 0 0 0
0 0 0 0 0 0 0 0 0 0 0 0 0 0 0 0 0 0 0 0 0 0 0 0 0 0 0 0 0 0 0 0 0 0 0 0 0 0 0 0 0 0 0
0 0 0 0 0 0 0 0 0 0 0 0 0 0 0 0 0 0 0 0 0 0 0 0 0 0 0 0 0 0 0 0 0 0 0 0 0 0 0 0 0 0 0
0 0 0 0 0 0 0 0 0 0 0 0 0 0 0 0 0 0 0 0 0 0 0 0 0 0 0 0 0 0 0 0 0 0 0 0 0 0 0 0 0 0 0
0 0 0 0 0 0 0 0 0 0 0 0 0 0 0 0 0 0 0 0 0 0 0 0 0 0 0 0 0 0 0 0 0 0 0 0 0 0 0 0 0 0 0
Wind_Speed
18 10 10 10 11 12 12 12 11 9 8 6 5 4 4 3 3 4 6 9 10 10 8 7 7 6 5 3 3 3 5 4 2 2 3 3 4 5 4 4 5 6 6
10 11 12 12 13 13 12 11 11 9 8 6 4 5 6 5 4 4 7 8 10 9 8 8 6 6 5 4 2 2 2 3 4 2 2 2 2 3 3 3 4 4 3
13 13 12 11 9 11 12 10 10 9 9 9 7 6 6 5 4 5 5 6 8 9 8 7 6 6 5 4 3 3 4 3 3 4 3 2 1 2 2 2 2 2 2
11 11 10 9 9 9 8 9 10 10 10 10 10 8 5 4 4 4 4 6 8 8 7 7 7 6 5 5 4 4 3 4 3 2 3 2 2 1 2 3 2 3 3
7 7 7 6 6 7 9 10 12 12 10 9 10 9 8 6 6 6 7 6 6 6 7 8 7 6 5 5 5 4 4 3 3 2 2 2 1 1 2 4 4 4 4
2 3 6 9 9 10 11 12 13 12 10 10 9 9 11 11 10 8 7 5 4 5 6 7 6 5 5 5 5 4 5 3 3 2 2 2 2 2 2 4 6 7 6
7 9 11 11 11 11 11 11 13 12 9 10 9 9 10 11 10 8 7 7 5 4 5 5 5 4 4 4 4 3 3 3 3 2 2 2 2 2 2 3 5 7 5
10 11 11 11 10 11 10 10 11 11 9 9 9 9 9 7 7 7 7 6 5 4 4 5 4 4 4 4 3 3 2 2 2 1 0 1 1 2 2 3 4 7 7
11 12 12 12 12 11 10 9 10 10 10 10 10 9 8 8 8 7 6 5 5 5 5 5 4 4 4 4 3 3 3 3 3 3 3 2 2 2 2 3 3 5 10
11 12 12 12 12 11 11 11 11 11 11 10 9 8 8 7 7 7 7 6 5 5 5 5 5 5 5 5 5 5 4 5 3 2 3 3 3 4 3 3 3 4 7
10 10 11 11 12 12 12 11 11 11 11 10 9 9 8 8 8 8 8 7 6 6 6 6 6 6 6 6 6 5 5 5 4 4 4 5 5 4 4 4 5 5 5
9 10 10 11 11 11 11 11 10 10 9 9 9 9 9 9 10 9 8 8 8 6 6 6 7 7 6 5 5 5 5 5 5 5 5 7 6 7 6 5 7 7 7
9 9 9 9 9 9 9 10 10 10 9 9 10 10 10 10 10 9 8 8 7 6 6 6 6 6 5 5 5 5 4 4 5 6 7 8 8 8 7 8 8 7 8
7 8 8 7 8 8 8 9 9 9 9 10 11 11 10 9 9 8 7 6 6 6 5 6 6 5 5 5 5 5 4 5 6 6 7 7 8 9 10 8 9 9 9
7 7 7 7 7 7 7 9 9 9 10 11 11 10 9 8 7 7 6 6 6 6 6 6 5 4 3 3 4 4 4 6 7 8 8 8 12 13 10 10 9 10 9
6 6 7 7 7 7 8 9 9 9 10 11 10 8 8 7 6 6 6 7 6 6 6 5 4 3 3 5 7 6 4 6 8 9 9 10 10 12 15 17 18 17 14
5 6 5 6 6 6 7 9 9 9 9 9 8 7 7 7 6 6 6 6 5 5 5 4 4 3 3 5 7 10 6 7 8 8 9 8 9 13 10 14 18 17 19
6 6 6 6 6 7 7 8 8 8 8 7 6 6 6 6 6 6 6 5 3 4 3 4 3 2 3 5 7 11 8 8 9 9 9 9 10 10 12 13 13 13 12
6 5 6 6 7 7 7 8 8 7 6 6 5 5 5 6 6 5 4 3 3 3 3 3 3 3 4 7 9 9 7 7 10 10 9 10 10 12 16 13 12 12 11
6 6 6 7 7 6 6 7 6 6 5 5 5 5 6 6 5 4 3 3 3 3 3 4 3 3 4 8 9 9 5 7 8 9 9 11 12 15 17 12 11 11 10
7 7 7 7 6 5 5 6 5 5 4 5 6 6 6 5 5 4 3 3 3 3 3 3 4 4 6 8 9 10 6 6 7 7 8 8 14 17 17 13 9 11 13
8 7 7 6 5 5 5 5 4 3 4 6 7 6 5 4 4 4 3 3 3 3 3 4 5 5 6 7 8 11 10 9 7 7 7 9 15 16 15 11 12 15 12
7 6 6 6 4 4 3 4 2 4 6 6 5 4 4 4 3 3 2 2 2 1 2 3 4 6 6 6 10 11 13 14 8 7 12 14 15 13 10 12 14 11 7
6 5 5 5 3 2 2 2 3 5 6 6 4 3 3 2 2 1 1 1 1 0 1 2 3 5 6 6 7 8 8 11 9 8 10 13 12 10 9 10 8 6 6
5 5 4 4 3 2 3 3 4 6 6 5 3 3 2 2 1 1 1 2 2 3 2 1 2 4 6 8 12 8 7 7 7 8 5 5 7 7 7 7 7 6 6
4 4 3 3 3 3 4 3 3 5 5 4 3 2 2 2 1 1 1 2 3 3 3 3 4 4 6 11 11 12 12 11 11 6 5 6 6 7 7 7 6 5 5
Wind_Direction
224 206 201 199 192 189 188 188 187 174 162 160 155 134 103 73 58 70 92 100 102 102 100 98 89 88 90 98 106 89 68 39 0 81 66 46 49 58 48 49 58 54 49
223 208 205 200 198 194 188 184 181 169 164 157 131 112 109 96 78 79 84 95 103 105 105 107 107 107 109 106 99 116 105 46 20 80 86 43 14 17 24 21 47 43 32
221 214 210 208 197 194 187 178 167 157 144 130 112 101 88 81 86 90 94 97 102 100 104 110 112 113 110 106 97 107 121 116 46 44 107 115 249 318 332 331 354 356 353
229 215 206 199 192 186 160 152 143 134 129 128 126 126 126 126 120 116 109 104 100 104 110 112 111 113 115 116 109 99 114 122 110 63 51 87 143 161 320 309 303 307 293
253 223 199 174 147 131 128 125 121 118 118 117 122 119 116 116 120 119 114 103 100 104 111 114 118 121 122 120 115 113 108 107 122 125 119 102 80 131 204 279 293 287 266
13 86 91 99 99 103 110 115 116 111 110 108 110 121 131 137 139 135 124 111 102 101 110 117 117 121 123 123 124 124 123 123 125 135 148 162 183 212 212 260 289 296 290
71 85 89 93 98 100 105 110 112 112 113 114 119 132 138 139 139 134 129 130 123 116 118 118 119 123 128 132 130 122 123 131 135 160 183 197 213 205 211 254 283 290 295
73 79 81 84 85 86 89 98 105 110 113 115 118 122 125 123 125 131 139 137 130 125 126 125 126 127 129 125 109 88 83 83 80 70 90 242 258 222 224 245 282 294 288
73 76 74 72 72 72 72 82 94 97 99 104 107 109 112 118 125 125 124 120 117 119 122 119 108 96 91 95 92 75 65 65 57 49 38 12 330 309 279 257 248 277 295
68 71 72 72 72 72 72 72 79 86 88 90 95 100 99 106 112 114 112 107 103 103 109 100 93 87 84 87 86 81 77 74 54 38 21 352 322 314 305 289 272 257 274
66 70 74 74 77 75 74 74 76 80 82 83 85 88 88 93 95 97 96 94 90 92 92 93 91 88 87 91 93 87 73 62 36 15 354 327 314 305 301 292 281 272 263
73 77 80 80 80 81 82 81 81 82 83 86 86 86 87 86 85 84 82 84 83 82 89 96 97 97 95 91 87 74 55 38 11 349 334 320 319 307 298 291 284 279 268
80 80 80 83 85 86 87 86 85 86 86 87 86 81 79 81 83 83 83 85 88 88 91 95 97 96 92 82 70 60 39 15 347 328 318 312 310 304 301 296 289 282 280
78 80 78 76 79 81 86 88 84 85 88 88 88 85 84 86 88 90 89 88 89 87 83 84 87 86 81 71 56 41 20 351 330 318 310 307 303 296 297 297 293 292 289
71 75 77 76 77 79 81 86 87 88 92 92 90 91 92 92 91 88 83 78 74 77 80 82 77 71 72 65 54 27 0 337 325 322 319 314 312 314 313 309 305 301 295
77 81 85 89 91 94 97 94 92 93 95 95 95 95 93 90 86 84 81 77 71 66 66 65 66 57 57 57 43 23 353 334 327 324 323 318 315 318 318 314 311 310 307
95 92 91 90 89 91 98 99 98 96 96 97 98 96 93 88 83 87 82 76 69 64 59 47 49 48 43 52 24 5 353 333 325 319 318 317 314 317 311 313 314 310 303
111 109 107 100 90 90 90 92 91 92 94 94 96 98 98 97 89 81 76 69 63 60 50 36 31 28 11 7 358 350 347 333 325 318 311 307 307 310 318 320 312 307 302
109 109 105 101 93 87 90 93 89 89 93 95 96 98 101 98 91 82 73 63 66 56 46 35 26 16 346 345 346 350 338 330 325 319 315 312 312 314 321 322 312 308 307
100 101 95 90 84 75 81 88 87 88 89 92 92 94 96 96 92 86 72 62 70 63 51 34 13 358 336 335 344 349 337 329 326 321 320 320 319 320 323 321 312 312 317
99 97 93 85 79 74 81 86 84 82 85 94 94 89 89 95 95 80 69 75 73 59 36 14 351 344 335 334 337 342 340 329 323 322 324 320 319 320 319 318 311 312 314
97 96 93 83 71 67 78 85 84 86 96 99 96 93 93 96 99 97 85 74 72 54 24 3 351 344 338 332 331 335 339 338 327 323 320 315 316 319 319 320 317 319 319
96 92 91 81 63 60 88 110 120 117 112 105 104 105 99 93 108 119 118 89 65 51 14 2 349 339 336 333 334 337 340 343 340 324 321 323 323 326 326 325 327 331 335
95 88 81 75 54 47 95 138 141 131 125 126 128 127 122 119 117 127 147 149 159 68 357 349 341 335 333 339 343 339 336 337 339 332 323 322 324 331 329 330 336 341 346
90 80 79 74 65 72 85 108 133 136 138 144 152 154 159 173 194 219 224 215 222 208 215 263 290 322 332 329 327 329 330 328 324 322 321 334 340 343 339 337 337 340 351
94 88 81 84 77 76 73 73 117 142 145 154 174 190 199 212 219 241 294 276 256 265 258 267 286 294 300 318 329 334 335 334 335 338 338 339 339 337 333 334 336 336 343